KD2BVA Weather Reports


time (UTC)temp
C
wind
direction
speed
KPH
gust
KPH
rain 1hr
cm
rain 24hr
cm
rain mn
cm
humidity
%
barometer
mb
20260906221037 22 165 0.0 1.6 0.00 0.00 0.00 57 1002.1
20260906220527 22 331 0.0 3.2 0.00 0.00 0.00 55 1002.0
20260906220025 22 297 0.0 4.8 0.00 0.00 0.00 55 1002.0
20260906215535 22 35 1.6 4.8 0.00 0.00 0.00 55 1001.9
20260906215024 23 300 0.0 4.8 0.00 0.00 0.00 54 1001.9
20260906214525 23 108 0.0 3.2 0.00 0.00 0.00 56 1001.9
20260906214034 23 273 0.0 3.2 0.00 0.00 0.00 52 1001.9
20260906213526 23 276 0.0 3.2 0.00 0.00 0.00 56 1001.9
20260906213034 23 287 0.0 4.8 0.00 0.00 0.00 54 1001.9
20260906212543 23 253 0.0 4.8 0.00 0.00 0.00 55 1001.9
20260906212023 23 306 0.0 4.8 0.00 0.00 0.00 56 1001.8
20260906211529 22 290 0.0 6.4 0.00 0.00 0.00 55 1001.8
20260906211038 23 37 1.6 6.4 0.00 0.00 0.00 53 1001.7
20260906210541 23 294 1.6 6.4 0.00 0.00 0.00 53 1001.7
20260906210047 24 261 0.0 3.2 0.00 0.00 0.00 52 1001.7
20260906205556 24 268 1.6 4.8 0.00 0.00 0.00 50 1001.6
20260906205024 25 294 0.0 3.2 0.00 0.00 0.00 55 1001.6
20260906204550 25 111 0.0 3.2 0.00 0.00 0.00 51 1001.6
20260906204100 25 168 0.0 4.8 0.00 0.00 0.00 56 1001.6
20260906203521 24 169 1.6 4.8 0.00 0.00 0.00 54 1001.5
20260906203029 24 291 1.6 4.8 0.00 0.00 0.00 55 1001.5
20260906202539 25 25 1.6 4.8 0.00 0.00 0.00 52 1001.5
20260906202049 25 203 1.6 4.8 0.00 0.00 0.00 53 1001.6
20260906201528 25 96 1.6 6.4 0.00 0.00 0.00 53 1001.6
20260906201042 25 3 1.6 6.4 0.00 0.00 0.00 54 1001.6
20260906200524 25 214 0.0 3.2 0.00 0.00 0.00 54 1001.6
20260906200032 25 158 1.6 3.2 0.00 0.00 0.00 54 1001.6
20260906195520 25 101 1.6 4.8 0.00 0.00 0.00 55 1001.6
20260906195020 25 143 1.6 4.8 0.00 0.00 0.00 55 1001.6
20260906194549 24 81 1.6 6.4 0.00 0.00 0.00 54 1001.6
20260906194056 24 56 1.6 6.4 0.00 0.00 0.00 53 1001.6
20260906193524 24 243 0.0 3.2 0.00 0.00 0.00 51 1001.6
20260906193050 23 134 1.6 11.3 0.00 0.00 0.00 56 1001.7
20260906192601 23 124 3.2 11.3 0.00 0.00 0.00 52 1001.7
20260906192047 23 188 1.6 14.5 0.00 0.00 0.00 54 1001.6
20260906191551 23 25 1.6 14.5 0.00 0.00 0.00 52 1001.7
20260906191039 23 239 0.0 8.0 0.00 0.00 0.00 54 1001.7
20260906190542 23 21 1.6 8.0 0.00 0.00 0.00 56 1001.7
20260906190048 23 245 0.0 3.2 0.00 0.00 0.00 54 1001.8
20260906185555 23 240 0.0 6.4 0.00 0.00 0.00 55 1001.8
20260906185024 23 270 1.6 6.4 0.00 0.00 0.00 55 1001.8
20260906184520 23 95 1.6 6.4 0.00 0.00 0.00 58 1001.8
20260906184030 23 132 1.6 6.4 0.00 0.00 0.00 60 1001.8
20260906183539 23 266 0.0 3.2 0.00 0.00 0.00 62 1001.8
20260906183047 23 54 1.6 3.2 0.00 0.00 0.00 64 1001.9
20260906182526 22 294 1.6 3.2 0.00 0.00 0.00 62 1001.9
20260906182055 22 205 0.0 3.2 0.00 0.00 0.00 63 1002.0
20260906181602 22 220 0.0 3.2 0.00 0.00 0.00 67 1002.1
20260906181027 22 101 1.6 3.2 0.00 0.00 0.00 63 1002.1
20260906180527 22 92 0.0 3.2 0.00 0.00 0.00 67 1002.2
20260906180035 21 155 1.6 3.2 0.00 0.00 0.00 64 1002.2
20260906175524 22 326 0.0 3.2 0.00 0.00 0.00 65 1002.2
20260906175023 21 81 0.0 3.2 0.00 0.00 0.00 66 1002.1
20260906174532 21 232 0.0 3.2 0.00 0.00 0.00 71 1002.2
20260906174040 21 229 0.0 3.2 0.00 0.00 0.00 66 1002.3
20260906173550 21 243 0.0 1.6 0.00 0.00 0.00 67 1002.3
20260906173026 21 203 0.0 6.4 0.00 0.00 0.00 69 1002.3
20260906172535 21 260 1.6 6.4 0.00 0.00 0.00 66 1002.3
20260906172036 21 143 3.2 8.0 0.00 0.00 0.00 64 1002.3
20260906171525 21 279 1.6 8.0 0.00 0.00 0.00 64 1002.3
20260906171031 21 221 1.6 6.4 0.00 0.00 0.00 67 1002.4
20260906170533 21 153 1.6 3.2 0.00 0.00 0.00 67 1002.5
20260906170039 21 123 0.0 1.6 0.00 0.00 0.00 68 1002.5
20260906165544 21 122 0.0 3.2 0.00 0.00 0.00 71 1002.5
20260906165025 22 271 0.0 3.2 0.00 0.00 0.00 70 1002.5
20260906164533 22 255 0.0 8.0 0.00 0.00 0.00 68 1002.5
20260906164043 22 106 1.6 6.4 0.00 0.00 0.00 70 1002.6
20260906163546 22 283 1.6 6.4 0.00 0.00 0.00 70 1002.6
20260906163104 22 262 1.6 4.8 0.00 0.00 0.00 69 1002.6
20260906162523 21 68 1.6 6.4 0.00 0.00 0.00 70 1002.7
20260906162033 22 55 1.6 6.4 0.00 0.00 0.00 69 1002.7
20260906161533 21 126 0.0 3.2 0.00 0.00 0.00 71 1002.7
20260906161022 21 113 0.0 4.8 0.00 0.00 0.00 73 1002.8
20260906160533 21 248 1.6 3.2 0.00 0.00 0.00 72 1002.8
20260906160031 21 273 0.0 6.4 0.00 0.00 0.00 71 1002.8
20260906155521 21 131 1.6 6.4 0.00 0.00 0.00 70 1003.0
20260906155032 21 219 1.6 3.2 0.00 0.00 0.00 76 1003.0
20260906154528 20 269 0.0 3.2 0.00 0.00 0.00 77 1003.1
20260906154036 20 219 0.0 6.4 0.00 0.00 0.00 81 1003.0
20260906153543 20 239 0.0 6.4 0.00 0.00 0.00 78 1003.0
20260906153022 20 143 0.0 3.2 0.00 0.00 0.00 78 1003.0
20260906152551 19 83 1.6 6.4 0.00 0.00 0.00 80 1003.0
20260906152058 19 102 1.6 6.4 0.00 0.00 0.00 81 1003.1
20260906151524 18 110 0.0 4.8 0.00 0.00 0.00 80 1003.2
20260906151033 18 75 0.0 4.8 0.00 0.00 0.00 81 1003.2
20260906150545 18 258 1.6 4.8 0.00 0.00 0.00 79 1003.1
20260906150023 18 48 0.0 3.2 0.00 0.00 0.00 82 1003.1
20260906145532 18 90 0.0 4.8 0.00 0.00 0.00 82 1003.1
20260906145044 18 6 1.6 4.8 0.00 0.00 0.00 82 1003.0
20260906144542 18 255 0.0 3.2 0.00 0.00 0.00 87 1003.1
20260906144028 17 108 1.6 3.2 0.00 0.00 0.00 88 1003.2
20260906143602 17 143 0.0 3.2 0.00 0.00 0.00 88 1003.2
20260906143107 17 110 0.0 4.8 0.00 0.00 0.00 88 1003.1
20260906142555 17 241 1.6 4.8 0.00 0.00 0.00 86 1003.0
20260906142105 17 233 1.6 3.2 0.00 0.00 0.00 85 1003.0
20260906141545 17 226 0.0 3.2 0.00 0.00 0.00 86 1003.0
20260906141032 17 281 0.0 1.6 0.00 0.00 0.00 87 1002.9
20260906140544 17 146 0.0 1.6 0.00 0.00 0.00 85 1002.8
20260906140020 17 200 0.0 1.6 0.00 0.00 0.00 87 1002.8
20260906135529 17 165 0.0 1.6 0.00 0.00 0.00 88 1002.7
20260906135038 17 220 0.0 1.6 0.00 0.00 0.00 88 1002.8
20260906134542 17 258 0.0 1.6 0.00 0.00 0.00 88 1002.8
20260906134022 17 276 0.0 1.6 0.00 0.00 0.00 88 1002.7
20260906133546 17 295 0.0 1.6 0.00 0.00 0.00 88 1002.6
20260906133103 17 287 0.0 1.6 0.00 0.00 0.00 90 1002.6
20260906132541 16 287 0.0 3.2 0.00 0.00 0.00 89 1002.6
20260906132028 16 238 1.6 3.2 0.00 0.00 0.00 89 1002.5
20260906131525 16 270 0.0 4.8 0.00 0.00 0.00 90 1002.6
20260906131034 16 124 1.6 4.8 0.00 0.00 0.00 90 1002.5
20260906130525 16 140 0.0 3.2 0.00 0.00 0.00 92 1002.5
20260906130043 16 250 0.0 1.6 0.00 0.00 0.00 94 1002.5
20260906125524 16 250 0.0 1.6 0.00 0.00 0.00 94 1002.5
20260906125032 15 250 0.0 1.6 0.00 0.00 0.00 94 1002.6
20260906124542 15 243 0.0 3.2 0.00 0.00 0.00 95 1002.5
20260906124042 15 224 0.0 3.2 0.00 0.00 0.00 96 1002.5
20260906123531 15 308 0.0 3.2 0.00 0.00 0.00 97 1002.4
20260906123027 14 294 0.0 3.2 0.00 0.00 0.00 97 1002.4
20260906122527 14 121 0.0 0.0 0.00 0.00 0.00 98 1002.4
20260906122032 13 121 0.0 0.0 0.00 0.00 0.00 98 1002.4
20260906121534 13 121 0.0 0.0 0.00 0.00 0.00 97 1002.3
20260906121043 13 121 0.0 0.0 0.00 0.00 0.00 97 1002.2
20260906120525 13 121 0.0 0.0 0.00 0.00 0.00 97 1002.2
20260906120032 13 121 0.0 1.6 0.00 0.00 0.00 97 1002.2
20260906115543 13 121 0.0 1.6 0.00 0.00 0.00 97 1002.2
20260906115022 13 121 0.0 0.0 0.00 0.00 0.00 97 1002.1
20260906114533 13 121 0.0 0.0 0.00 0.00 0.00 97 1002.1
20260906114043 13 121 0.0 1.6 0.00 0.00 0.00 97 1001.9
20260906113544 13 121 0.0 0.0 0.00 0.00 0.00 96 1001.8
20260906113104 13 121 0.0 1.6 0.00 0.00 0.00 96 1001.7
20260906112539 13 121 0.0 1.6 0.00 0.00 0.00 96 1001.6
20260906112043 13 120 0.0 0.0 0.00 0.00 0.00 96 1001.5
20260906111547 13 131 0.0 1.6 0.00 0.00 0.00 96 1001.5
20260906111035 13 131 0.0 1.6 0.00 0.00 0.00 96 1001.4
20260906110546 13 86 0.0 0.0 0.00 0.00 0.00 96 1001.4
20260906110023 14 86 0.0 0.0 0.00 0.00 0.00 96 1001.4
20260906105532 14 86 0.0 0.0 0.00 0.00 0.00 96 1001.3
20260906105033 14 86 0.0 0.0 0.00 0.00 0.00 96 1001.1
20260906104522 14 86 0.0 0.0 0.00 0.00 0.00 96 1001.2
20260906104031 14 86 0.0 0.0 0.00 0.00 0.00 96 1001.1
20260906103532 14 86 0.0 0.0 0.00 0.00 0.00 96 1001.0
20260906103039 14 86 0.0 1.6 0.00 0.00 0.00 96 1000.9
20260906102519 14 68 0.0 1.6 0.00 0.00 0.00 96 1000.8
20260906102029 14 68 0.0 1.6 0.00 0.00 0.00 95 1000.7
20260906101539 15 281 0.0 1.6 0.00 0.00 0.00 95 1000.8
20260906101045 15 281 0.0 1.6 0.00 0.00 0.00 95 1000.7
20260906100525 15 281 0.0 1.6 0.00 0.00 0.00 96 1000.6
20260906100033 15 282 0.0 1.6 0.00 0.00 0.00 96 1000.7
20260906095536 15 283 0.0 1.6 0.00 0.00 0.00 96 1000.7
20260906095036 15 283 0.0 1.6 0.00 0.00 0.00 96 1000.7
20260906094526 15 285 0.0 1.6 0.00 0.00 0.00 96 1000.6
20260906094023 15 265 0.0 1.6 0.00 0.00 0.00 96 1000.5
20260906093534 15 262 0.0 1.6 0.00 0.00 0.00 96 1000.5
20260906093022 15 262 0.0 1.6 0.00 0.00 0.00 96 1000.4
20260906092551 15 107 0.0 1.6 0.00 0.00 0.00 96 1000.4
20260906092029 15 106 0.0 1.6 0.00 0.00 0.00 96 1000.4
20260906091538 15 106 0.0 0.0 0.00 0.00 0.00 96 1000.3
20260906091047 15 106 0.0 8.0 0.00 0.00 0.00 96 1000.3
20260906090529 15 104 0.0 8.0 0.00 0.00 0.00 96 1000.2
20260906090036 15 84 1.6 6.4 0.00 0.00 0.00 97 1000.2
20260906085542 15 255 0.0 4.8 0.00 0.00 0.00 97 1000.2
20260906085048 15 74 0.0 4.8 0.00 0.00 0.00 97 1000.1
20260906084526 15 129 0.0 0.0 0.00 0.00 0.00 97 1000.1
20260906084031 15 129 0.0 0.0 0.00 0.00 0.00 97 1000.0
20260906083539 15 129 0.0 0.0 0.00 0.00 0.00 97 999.9
20260906083046 15 129 0.0 0.0 0.00 0.00 0.00 97 999.8
20260906082526 15 129 0.0 0.0 0.00 0.00 0.00 97 999.8
20260906082035 15 129 0.0 1.6 0.00 0.00 0.00 97 999.7
20260906081532 15 269 0.0 1.6 0.00 0.00 0.00 97 999.7
20260906081043 15 269 0.0 1.6 0.00 0.00 0.00 97 999.7
20260906080530 15 269 0.0 1.6 0.00 0.00 0.00 97 999.7
20260906080039 15 141 0.0 0.0 0.00 0.00 0.00 97 999.7
20260906075546 15 141 0.0 0.0 0.00 0.00 0.00 96 999.7
20260906075054 15 141 0.0 1.6 0.00 0.00 0.00 97 999.7
20260906074534 15 141 0.0 1.6 0.00 0.00 0.00 97 999.6
20260906074023 15 140 0.0 0.0 0.00 0.00 0.00 96 999.6
20260906073536 15 140 0.0 0.0 0.00 0.00 0.00 96 999.6
20260906073030 15 140 0.0 0.0 0.00 0.00 0.00 96 999.6
20260906072519 15 140 0.0 0.0 0.00 0.00 0.00 96 999.6
20260906072049 15 140 0.0 0.0 0.00 0.00 0.00 96 999.5
20260906071527 15 141 0.0 0.0 0.00 0.00 0.00 96 999.4
20260906071037 15 140 0.0 0.0 0.00 0.00 0.00 96 999.3
20260906070549 15 140 0.0 0.0 0.00 0.00 0.00 95 999.3
20260906070026 16 140 0.0 0.0 0.00 0.00 0.00 95 999.2
20260906065535 16 140 0.0 0.0 0.00 0.00 0.00 95 999.2
20260906065045 16 140 0.0 0.0 0.00 0.00 0.00 95 999.3
20260906064525 16 141 0.0 0.0 0.00 0.00 0.00 95 999.2
20260906064035 16 140 0.0 0.0 0.00 0.00 0.00 95 999.3
20260906063547 16 140 0.0 0.0 0.00 0.00 0.00 95 999.3
20260906063024 16 140 0.0 0.0 0.00 0.00 0.00 95 999.4
20260906062533 16 140 0.0 0.0 0.00 0.00 0.00 95 999.3
20260906062042 16 140 0.0 0.0 0.00 0.00 0.00 95 999.3
20260906061522 16 140 0.0 0.0 0.00 0.00 0.00 95 999.3
20260906061032 16 140 0.0 0.0 0.00 0.00 0.00 94 999.3
20260906060530 16 140 0.0 0.0 0.00 0.00 0.00 94 999.3
20260906060038 16 140 0.0 0.0 0.00 0.00 0.00 94 999.3
20260906055543 16 140 0.0 0.0 0.00 0.00 0.00 94 999.4
20260906055051 16 140 0.0 0.0 0.00 0.00 0.00 94 999.5
20260906054539 16 140 0.0 0.0 0.00 0.00 0.00 94 999.4
20260906054046 16 140 0.0 0.0 0.00 0.00 0.00 94 999.4
20260906053545 16 140 0.0 0.0 0.00 0.00 0.00 94 999.4
20260906053032 16 140 0.0 0.0 0.00 0.00 0.00 93 999.4
20260906052542 16 140 0.0 0.0 0.00 0.00 0.00 93 999.3
20260906052022 16 140 0.0 0.0 0.00 0.00 0.00 93 999.3
20260906051532 16 140 0.0 0.0 0.00 0.00 0.00 92 999.3
20260906051041 16 140 0.0 0.0 0.00 0.00 0.00 92 999.3
20260906050542 16 140 0.0 1.6 0.00 0.00 0.00 92 999.3
20260906050027 17 140 0.0 1.6 0.00 0.00 0.00 92 999.3
20260906045532 17 169 0.0 0.0 0.00 0.00 0.00 92 999.3
20260906045033 17 155 0.0 0.0 0.00 0.00 0.00 93 999.3
20260906044522 17 133 0.0 1.6 0.00 0.00 0.00 93 999.3
20260906044024 17 133 0.0 1.6 0.00 0.00 0.00 93 999.2
20260906043536 16 130 0.0 3.2 0.00 0.00 0.00 94 999.2
20260906043042 16 126 0.0 3.2 0.00 0.00 0.00 94 999.2
20260906042550 16 131 0.0 1.6 0.00 0.00 0.00 94 999.3
20260906042036 16 131 0.0 1.6 0.00 0.00 0.00 94 999.3
20260906041545 16 131 0.0 1.6 0.00 0.00 0.00 94 999.3
20260906041025 16 131 0.0 1.6 0.00 0.00 0.00 94 999.3
20260906040537 16 131 0.0 0.0 0.00 0.00 0.00 94 999.3
20260906040042 16 131 0.0 0.0 0.00 0.00 0.00 94 999.3
20260906035521 16 131 0.0 0.0 0.00 0.00 0.00 94 999.3
20260906035031 16 131 0.0 0.0 0.00 0.00 0.00 94 999.2
20260906034527 16 131 0.0 0.0 0.00 0.00 0.00 94 999.1
20260906034030 16 131 0.0 3.2 0.00 0.00 0.00 94 999.2
20260906033541 16 131 0.0 3.2 0.00 0.00 0.00 95 999.1
20260906033029 16 132 0.0 1.6 0.00 0.00 0.00 95 999.2
20260906032530 16 172 0.0 0.0 0.00 0.00 0.00 95 999.1
20260906032039 16 172 0.0 0.0 0.00 0.00 0.00 95 999.1
20260906031549 16 129 0.0 1.6 0.00 0.00 0.00 95 999.1
20260906031100 16 129 0.0 1.6 0.00 0.00 0.00 96 999.1
20260906030612 16 128 0.0 0.0 0.00 0.00 0.00 96 999.1
20260906030100 16 128 0.0 0.0 0.00 0.00 0.00 96 999.1
20260906025608 16 128 0.0 0.0 0.00 0.00 0.00 96 999.0
20260906025046 16 133 0.0 0.0 0.00 0.00 0.00 96 999.1
20260906024546 16 133 0.0 0.0 0.00 0.00 0.00 95 999.0
20260906024105 16 133 0.0 0.0 0.00 0.00 0.00 95 999.0
20260906023525 16 133 0.0 0.0 0.00 0.00 0.00 95 998.9
20260906023030 16 133 0.0 0.0 0.00 0.00 0.00 95 998.9
20260906022540 16 133 0.0 0.0 0.00 0.00 0.00 95 998.9
20260906022020 16 133 0.0 0.0 0.00 0.00 0.00 95 998.9
20260906021530 16 133 0.0 0.0 0.00 0.00 0.00 95 998.8
20260906021039 16 133 0.0 0.0 0.00 0.00 0.00 95 998.8
20260906020521 16 133 0.0 0.0 0.00 0.00 0.00 95 998.7
20260906020048 16 133 0.0 0.0 0.00 0.00 0.00 95 998.8
20260906015555 16 133 0.0 1.6 0.00 0.00 0.00 95 998.8
20260906015023 16 133 0.0 1.6 0.00 0.00 0.00 95 998.7
20260906014549 16 112 0.0 1.6 0.00 0.00 0.00 95 998.8
20260906014026 16 150 0.0 0.0 0.00 0.00 0.00 94 998.8
20260906013538 16 150 0.0 0.0 0.00 0.00 0.00 94 998.8
20260906013046 16 150 0.0 0.0 0.00 0.00 0.00 94 998.9
20260906012542 16 150 0.0 0.0 0.00 0.00 0.00 94 998.9
20260906012103 16 150 0.0 0.0 0.00 0.00 0.00 94 998.8
20260906011522 16 150 0.0 0.0 0.00 0.00 0.00 94 998.8
20260906011031 16 150 0.0 0.0 0.00 0.00 0.00 94 998.7
20260906010534 16 150 0.0 0.0 0.00 0.00 0.00 95 998.8
20260906010022 16 150 0.0 1.6 0.00 0.00 0.00 95 998.8
20260906005533 16 119 0.0 0.0 0.00 0.00 0.00 95 998.8
20260906005057 16 119 0.0 0.0 0.00 0.00 0.00 95 998.8
20260906004603 16 119 0.0 0.0 0.00 0.00 0.00 95 998.7
20260906004040 16 119 0.0 0.0 0.00 0.00 0.00 95 998.7
20260906003559 16 119 0.0 0.0 0.00 0.00 0.00 95 998.6
20260906003107 16 119 0.0 0.0 0.00 0.00 0.00 95 998.6
20260906002526 16 119 0.0 0.0 0.00 0.00 0.00 94 998.5
20260906002036 16 119 0.0 0.0 0.00 0.00 0.00 94 998.5
20260906001544 16 119 0.0 0.0 0.00 0.00 0.00 94 998.5
20260906001024 16 119 0.0 0.0 0.00 0.00 0.00 94 998.4
20260906000535 16 119 0.0 0.0 0.00 0.00 0.00 93 998.5
20260906000033 16 119 0.0 0.0 0.00 0.00 0.00 93 998.4
20260905235520 16 119 0.0 0.0 0.00 0.00 0.00 92 998.3
20260905235030 16 120 0.0 0.0 0.00 0.00 0.00 92 998.2
20260905234529 17 119 0.0 0.0 0.00 0.00 0.00 91 998.2
20260905234039 17 119 0.0 0.0 0.00 0.00 0.00 90 998.2
20260905233527 17 119 0.0 0.0 0.00 0.00 0.00 90 998.2
20260905233045 17 119 0.0 0.0 0.00 0.00 0.00 90 998.3
20260905232525 17 119 0.0 0.0 0.00 0.00 0.00 90 998.3
20260905232034 17 119 0.0 0.0 0.00 0.00 0.00 89 998.2
20260905231532 18 119 0.0 0.0 0.00 0.00 0.00 90 998.1
20260905231021 18 119 0.0 0.0 0.00 0.00 0.00 89 998.1
20260905230533 18 119 0.0 0.0 0.00 0.00 0.00 89 998.0
20260905230031 18 119 0.0 0.0 0.00 0.00 0.00 89 997.9
20260905225539 18 119 0.0 0.0 0.00 0.00 0.00 88 997.9
20260905225030 18 119 0.0 0.0 0.00 0.00 0.00 88 997.9
20260905224600 18 119 0.0 0.0 0.00 0.00 0.00 88 997.9
20260905224040 19 119 0.0 0.0 0.00 0.00 0.00 87 997.9
20260905223550 19 119 0.0 0.0 0.00 0.00 0.00 86 997.8
20260905223055 19 119 0.0 0.0 0.00 0.00 0.00 85 997.8
20260905222529 20 119 0.0 0.0 0.00 0.00 0.00 83 997.8
20260905222038 20 119 0.0 0.0 0.00 0.00 0.00 83 997.7
20260905221548 20 119 0.0 0.0 0.00 0.00 0.00 81 997.6